Preview of NWS' New Version of Forecast
This preview is not operational and should not be used for support decisions.

Regional Weather Roundup (RWR)

Issued by NWS Wilmington, NC (ILM)

                            
000
ASUS42 KILM 241613
RWRILM
RWRILM
REGIONAL HOURLY WEATHER ROUNDUP
NATIONAL WEATHER SERVICE WILMINGTON NC
1200 PM EDT WED APR 24 2019
 
NOTE: "FAIR" INDICATES FEW OR NO CLOUDS BELOW 12,000 FEET WITH NO
SIGNIFICANT WEATHER AND/OR OBSTRUCTIONS TO VISIBILITY.
 
...............WFO WILMINGTON COUNTY WARNING AREA...............

......COASTAL NC AND SC COUNTIES......
  
CITY           SKY/WX    TMP DP  RH WIND       PRES   REMARKS
WILMINGTON     FAIR      75  57  53 W7        29.95F                  
N MYRTLE BEACH FAIR      77  63  61 S6        29.96F                  
MYRTLE BEACH   FAIR      79  60  52 W5        29.98F                  

......INLAND NC AND SC COUNTIES.......
  
CITY           SKY/WX    TMP DP  RH WIND       PRES   REMARKS
LUMBERTON      NOT AVBL                                               
ELIZABETHTOWN  FAIR      78  59  51 W3        29.96F                  
WHITEVILLE     FAIR      74  58  56 SW3       29.96F                  
FLORENCE       FAIR      80  58  46 SW3       29.97F                  
DARLINGTON     FAIR      82  56  40 SW6       29.97S                  
KINGSTREE      FAIR      79  55  44 W5        29.98F                  
HARTSVILLE     FAIR      81  55  41 S6        29.96F                  
BENNETTSVILLE  FAIR      79  59  50 CALM      29.95F                  
CONWAY         FAIR      77  59  53 W5        29.98F                  
GEORGETOWN     FAIR      81  55  41 W9        30.00F                  
MARION         FAIR      75  57  53 SW6       29.97S                  
 
....................REST OF NORTH CAROLINA......................

.........EASTERN NC.........
  
CITY           SKY/WX    TMP DP  RH WIND       PRES   REMARKS
CAPE HATTERAS  FAIR      73  66  78 SW13G21   29.92S                  
JACKSONVILLE   FAIR      81  61  50 W6        29.95S                  
MOREHEAD CITY  FAIR      75  62  64 W13       29.93F                  
KENANSVILLE    FAIR      81  57  44 W6        29.93F                  
NEW BERN       FAIR      79  62  56 W6        29.93F                  
ELIZABETH CITY FAIR      74  59  59 SW6       29.88F                  

.........CENTRAL NC.........
  
CITY           SKY/WX    TMP DP  RH WIND       PRES   REMARKS
RALEIGH DURHAM PTSUNNY   79  56  45 VRB7      29.94S                  
ROCKY MOUNT    FAIR      79  57  46 W8        29.92F                  
ROANOKE RAPIDS NOT AVBL                                               
FAYETTEVILLE   FAIR      82  58  43 VRB7      29.93F                  
HOFFMAN        FAIR      82  54  37 NW7       29.94F                  

.........WESTERN NC.........
  
CITY           SKY/WX    TMP DP  RH WIND       PRES   REMARKS
CHARLOTTE      FAIR      81  51  35 S6        29.97F                  
GREENSBORO     PTSUNNY   79  50  36 NW12G18   29.95F                  
HICKORY        NOT AVBL                                               
BOONE          NOT AVBL                                               
ASHEVILLE      NOT AVBL                                               

.....................REST OF SOUTH CAROLINA.....................

.........EASTERN SC.........
  
CITY           SKY/WX    TMP DP  RH WIND       PRES   REMARKS
CHARLESTON     FAIR      81  57  43 W9        30.00F                  
BEAUFORT MCAS  FAIR      84  58  40 W13       30.02F                  
HILTON HEAD    SUNNY     81  59  47 W5        30.04S                  

.........CENTRAL SC.........
  
CITY           SKY/WX    TMP DP  RH WIND       PRES   REMARKS
COLUMBIA       FAIR      83  54  36 W9        29.96F                  
ORANGEBURG     FAIR      82  54  37 W16       29.99                   
SUMTER SHAW    MOSUNNY   83  56  39 SW13      29.97F                  

.........WESTERN SC.........
  
CITY           SKY/WX    TMP DP  RH WIND       PRES   REMARKS
GREENVILLE     NOT AVBL                                               
ROCK HILL      FAIR      80  55  42 CALM      29.97F                  
ANDERSON       FAIR      79  56  45 W13       29.99F                  
CLEMSON        NOT AVBL                                               
GREENWOOD      FAIR      78  55  44 MISG      30.01S                  
 

...................COASTAL AND OFFSHORE REPORTS..................

................LOCAL PIERS AND NC RESERVE................

  
STATION/POSITION TIME  SKY/WX   TEMP    WIND        PRES    VSBY
                                AIR SEA DIR/SP/G
                 (UTC)          (F)     (DEG/KT/KT) (MB)    (MI)
JOHNY MRCER PIER 1548               68  240/  5/  7 1014.1F
NC RESRV MASNBRO NOT AVBL
OCEAN CREST PIER NOT AVBL
SPRINGMAID  PIER NOT AVBL


................COASTAL AND OFFSHORE BUOYS................

  
STATION/POSITION TIME  SKY/WX   TEMP    WIND        PRES    VSBY
                                AIR SEA DIR/SP/G
                 (UTC)          (F)     (DEG/KT/KT) (MB)    (MI)
DIMNDSHOAL 41025 NOT AVBL
CAPE LOOKOUT     1600            70     250/ 12/ 16 1013.8F
ONSLOW BAY 41036 NOT AVBL
ONSLOW BAY 41064 1508            69 70  270/ 17/ 23 1013.7F
ONSLOW BAY 41159 1600               70                N/A
WVE H/P(F/S)=  6/ 5 SWL H/P/D(F/S/D)=  2/120/12

MASNBO INL 41110 1600               67                N/A
WVE H/P(F/S)=  3/ 9

WILM HARBR 41108 1600               67                N/A
WVE H/P(F/S)=  3/ 5

27SE WRITB 41037 1508            69 68  280/ 17/ 21 1014.6S
FRYING PAN 41013 1550            69     200/ 14/ 16 1015.7F
WVE H/P(F/S)=  4/ 5 SWL H/P/D(F/S/D)=  2/140/ 9

SUNST NRSH 41024 1508            67 67  230/ 10/ 16 1015.3F
CAPRS NRSH 41029 1508            69 68  240/ 14/ 17 1016.2S
EDISTO     41004 1550               71  230/ 14/ 17 1016.9F
WVE H/P(F/S)=  4/ 8 SWL H/P/D(F/S/D)=  2/110/ 8



..........OFFSHORE BUOYS BEYOND 100 NM OFFSHORE...........
.....IN A TRIANGLE---HAT TO BERMUDA TO BAHAMAS TO HAT..... 

  
STATION/POSITION TIME  SKY/WX   TEMP    WIND        PRES    VSBY
                                AIR SEA DIR/SP/G
                 (UTC)          (F)     (DEG/KT/KT) (MB)    (MI)
150E HAT   41001 NOT AVBL
W BERMUDA  41048 NOT AVBL
ATLANTIC S 41049 1550               76   10/  4/  6 1016.7F
WVE H/P(F/S)=  5/ 9 SWL H/P/D(F/S/D)=  5/ 60/ 9

E BAHAMAS  41046 1600                   160/  4/  6 1018.1
NE BAHAMAS 41047 1550                    50/ 10/ 14 1018.3F
WVE H/P(F/S)=  7/11 SWL H/P/D(F/S/D)=  7/ 80/11

120E CANVRL41010 1600            74 78  170/  2/  4 1019.4

END